Year,Month,Day,Hour,Minute,Value (Times are PST for temperature in C)
2013,03,26,08,06,5.20
2013,03,26,08,07,5.20
2013,03,26,08,08,5.30
2013,03,26,08,09,5.30
2013,03,26,08,10,5.40
2013,03,26,08,11,5.40
2013,03,26,08,12,5.50
2013,03,26,08,13,5.60
2013,03,26,08,14,5.60
2013,03,26,08,15,5.70
2013,03,26,08,16,5.70
2013,03,26,08,17,5.70
2013,03,26,08,18,5.80
2013,03,26,08,19,5.80
2013,03,26,08,20,5.80
2013,03,26,08,21,5.90
2013,03,26,08,22,5.90
2013,03,26,08,23,5.90
2013,03,26,08,24,6.00
2013,03,26,08,25,6.00
2013,03,26,08,26,6.00
2013,03,26,08,27,6.10
2013,03,26,08,28,6.10
2013,03,26,08,29,6.10
2013,03,26,08,30,6.20
2013,03,26,08,31,6.20
2013,03,26,08,32,6.20
2013,03,26,08,33,6.20
2013,03,26,08,34,6.30
2013,03,26,08,35,6.30
2013,03,26,08,36,6.30
2013,03,26,08,37,6.30
2013,03,26,08,38,6.30
2013,03,26,08,39,6.30
2013,03,26,08,40,6.40
2013,03,26,08,41,6.40
2013,03,26,08,42,6.40
2013,03,26,08,43,6.40
2013,03,26,08,44,6.50
2013,03,26,08,45,6.50
2013,03,26,08,46,6.60
2013,03,26,08,47,6.60
2013,03,26,08,48,6.60
2013,03,26,08,49,6.60
2013,03,26,08,50,6.60
2013,03,26,08,51,6.60
2013,03,26,08,52,6.60
2013,03,26,08,53,6.60
2013,03,26,08,54,6.70
2013,03,26,08,55,6.70
2013,03,26,08,56,6.70
2013,03,26,08,57,6.70
2013,03,26,08,58,6.70
2013,03,26,08,59,6.70
2013,03,26,09,00,6.70
2013,03,26,09,01,6.70
2013,03,26,09,02,6.80
2013,03,26,09,03,6.80
2013,03,26,09,04,6.80
2013,03,26,09,05,6.80
2013,03,26,09,06,6.80
2013,03,26,09,07,6.80
2013,03,26,09,08,6.80
2013,03,26,09,09,6.80
2013,03,26,09,10,6.80
2013,03,26,09,11,6.80
2013,03,26,09,12,6.90
2013,03,26,09,13,6.90
2013,03,26,09,14,6.90
2013,03,26,09,15,6.90
2013,03,26,09,16,6.90
2013,03,26,09,17,6.90
2013,03,26,09,18,6.90
2013,03,26,09,19,7.00
2013,03,26,09,20,7.00
2013,03,26,09,21,7.00
2013,03,26,09,22,7.00
2013,03,26,09,23,7.00
2013,03,26,09,24,7.10
2013,03,26,09,25,7.10
2013,03,26,09,26,7.10
2013,03,26,09,27,7.10
2013,03,26,09,28,7.10
2013,03,26,09,29,7.10
2013,03,26,09,30,7.10
2013,03,26,09,31,7.10
2013,03,26,09,32,7.10
2013,03,26,09,33,7.10
2013,03,26,09,34,7.10
2013,03,26,09,35,7.10
2013,03,26,09,36,7.20
2013,03,26,09,37,7.20
2013,03,26,09,38,7.20
2013,03,26,09,39,7.20
2013,03,26,09,40,7.30
2013,03,26,09,41,7.30
2013,03,26,09,42,7.40
2013,03,26,09,43,7.40
2013,03,26,09,44,7.50
2013,03,26,09,45,7.50
2013,03,26,09,46,7.60
2013,03,26,09,47,7.60
2013,03,26,09,48,7.60
2013,03,26,09,49,7.70
2013,03,26,09,50,7.70
2013,03,26,09,51,7.80
2013,03,26,09,52,7.90
2013,03,26,09,53,7.90
2013,03,26,09,54,8.00
2013,03,26,09,55,8.00
2013,03,26,09,56,8.10
2013,03,26,09,57,8.10
2013,03,26,09,58,8.20
2013,03,26,09,59,8.20
2013,03,26,10,00,8.20
2013,03,26,10,01,8.30
2013,03,26,10,02,8.30
2013,03,26,10,03,8.30
2013,03,26,10,04,8.30
2013,03,26,10,05,8.30
2013,03,26,10,06,8.30
2013,03,26,10,07,8.30
2013,03,26,10,08,8.20
2013,03,26,10,09,8.20
2013,03,26,10,10,8.20
2013,03,26,10,11,8.20
2013,03,26,10,12,8.30
2013,03,26,10,13,8.30
2013,03,26,10,14,8.30
2013,03,26,10,15,8.30
2013,03,26,10,16,8.40
2013,03,26,10,17,8.40
2013,03,26,10,18,8.40
2013,03,26,10,19,8.50
2013,03,26,10,20,8.50
2013,03,26,10,21,8.50
2013,03,26,10,22,8.50
2013,03,26,10,23,8.60
2013,03,26,10,24,8.60
2013,03,26,10,25,8.60
2013,03,26,10,26,8.70
2013,03,26,10,27,8.70
2013,03,26,10,28,8.70
2013,03,26,10,29,8.70
2013,03,26,10,30,8.70
2013,03,26,10,31,8.70
2013,03,26,10,32,8.70
2013,03,26,10,33,8.70
2013,03,26,10,34,8.70
2013,03,26,10,35,8.80
2013,03,26,10,36,8.80
2013,03,26,10,37,8.80
2013,03,26,10,38,8.80
2013,03,26,10,39,8.80
2013,03,26,10,40,8.90
2013,03,26,10,41,8.90
2013,03,26,10,42,8.90
2013,03,26,10,43,8.90
2013,03,26,10,44,8.90
2013,03,26,10,45,8.80
2013,03,26,10,46,8.80
2013,03,26,10,47,8.80
2013,03,26,10,48,8.80
2013,03,26,10,49,8.80
2013,03,26,10,50,8.80
2013,03,26,10,51,8.90
2013,03,26,10,52,8.90
2013,03,26,10,53,8.90
2013,03,26,10,54,8.90
2013,03,26,10,55,8.90
2013,03,26,10,56,8.90
2013,03,26,10,57,9.00
2013,03,26,10,58,9.10
2013,03,26,10,59,9.10
2013,03,26,11,00,9.20
2013,03,26,11,01,9.20
2013,03,26,11,02,9.30
2013,03,26,11,03,9.30
2013,03,26,11,04,9.40
2013,03,26,11,05,9.40
2013,03,26,11,06,9.50
2013,03,26,11,07,9.50
2013,03,26,11,08,9.60
2013,03,26,11,09,9.60
2013,03,26,11,10,9.60
2013,03,26,11,11,9.60
2013,03,26,11,12,9.70
2013,03,26,11,13,9.80
2013,03,26,11,14,9.80
2013,03,26,11,15,9.90
2013,03,26,11,16,9.90
2013,03,26,11,17,9.90
2013,03,26,11,18,9.90
2013,03,26,11,19,10.00
2013,03,26,11,20,10.00
2013,03,26,11,21,10.10
2013,03,26,11,22,10.20
2013,03,26,11,23,10.20
2013,03,26,11,24,10.30
2013,03,26,11,25,10.40
2013,03,26,11,26,10.40
2013,03,26,11,27,10.50
2013,03,26,11,28,10.60
2013,03,26,11,29,10.70
2013,03,26,11,30,10.80
2013,03,26,11,31,11.00
2013,03,26,11,32,11.10
2013,03,26,11,33,11.20
2013,03,26,11,34,11.30
2013,03,26,11,35,11.40
2013,03,26,11,36,11.60
2013,03,26,11,37,11.70
2013,03,26,11,38,11.70
2013,03,26,11,39,11.80
2013,03,26,11,40,11.90
2013,03,26,11,41,11.90
2013,03,26,11,42,12.00
2013,03,26,11,43,12.10
2013,03,26,11,44,12.10
2013,03,26,11,45,12.20
2013,03,26,11,46,12.40
2013,03,26,11,47,12.50
2013,03,26,11,48,12.70
2013,03,26,11,49,12.80
2013,03,26,11,50,12.90
2013,03,26,11,51,13.00
2013,03,26,11,52,13.00
2013,03,26,11,53,12.90
2013,03,26,11,54,12.80
2013,03,26,11,55,12.80
2013,03,26,11,56,12.80
2013,03,26,11,57,12.70
2013,03,26,11,58,12.70
2013,03,26,11,59,12.70
2013,03,26,12,00,12.60
2013,03,26,12,01,12.50
2013,03,26,12,02,12.40
2013,03,26,12,03,12.30
2013,03,26,12,04,12.30
2013,03,26,12,05,12.20
2013,03,26,12,06,12.20
2013,03,26,12,07,12.20
2013,03,26,12,08,12.20
2013,03,26,12,09,12.10
2013,03,26,12,10,12.10
2013,03,26,12,11,12.10
2013,03,26,12,12,12.10
2013,03,26,12,13,12.10
2013,03,26,12,14,12.10
2013,03,26,12,15,12.10
2013,03,26,12,16,12.10
2013,03,26,12,17,12.10
2013,03,26,12,18,12.00
2013,03,26,12,19,12.10
2013,03,26,12,20,12.10
2013,03,26,12,21,12.10
2013,03,26,12,22,12.20
2013,03,26,12,23,12.20
2013,03,26,12,24,12.30
2013,03,26,12,25,12.40
2013,03,26,12,26,12.40
2013,03,26,12,27,12.50
2013,03,26,12,28,12.50
2013,03,26,12,29,12.50
2013,03,26,12,30,12.40
2013,03,26,12,31,12.40
2013,03,26,12,32,12.40
2013,03,26,12,33,12.40
2013,03,26,12,34,12.50
2013,03,26,12,35,12.50
2013,03,26,12,36,12.60
2013,03,26,12,37,12.60
2013,03,26,12,38,12.60
2013,03,26,12,39,12.70
2013,03,26,12,40,12.80
2013,03,26,12,41,12.90
2013,03,26,12,42,13.10
2013,03,26,12,43,13.20
2013,03,26,12,44,13.30
2013,03,26,12,45,13.40
2013,03,26,12,46,13.50
2013,03,26,12,47,13.60
2013,03,26,12,48,13.60
2013,03,26,12,49,13.60
2013,03,26,12,50,13.50
2013,03,26,12,51,13.50
2013,03,26,12,52,13.50
2013,03,26,12,53,13.50
2013,03,26,12,54,13.40
2013,03,26,12,55,13.30
2013,03,26,12,56,13.10
2013,03,26,12,57,13.00
2013,03,26,12,58,13.00
2013,03,26,12,59,13.00
2013,03,26,13,00,13.00
2013,03,26,13,01,13.00
2013,03,26,13,02,13.00
2013,03,26,13,03,12.90
2013,03,26,13,04,12.80
2013,03,26,13,05,12.80
2013,03,26,13,06,12.70
2013,03,26,13,07,12.70
2013,03,26,13,08,12.80
2013,03,26,13,09,12.80
2013,03,26,13,10,12.80
2013,03,26,13,11,12.90
2013,03,26,13,12,12.90
2013,03,26,13,13,13.00
2013,03,26,13,14,13.00
2013,03,26,13,15,13.10
2013,03,26,13,16,13.10
2013,03,26,13,17,13.00
2013,03,26,13,18,12.90
2013,03,26,13,19,12.80
2013,03,26,13,20,12.70
2013,03,26,13,21,12.70
2013,03,26,13,22,12.70
2013,03,26,13,23,12.70
2013,03,26,13,24,12.60
2013,03,26,13,25,12.70
2013,03,26,13,26,12.70
2013,03,26,13,27,12.80
2013,03,26,13,28,12.80
2013,03,26,13,29,12.80
2013,03,26,13,30,12.70
2013,03,26,13,31,12.70
2013,03,26,13,32,12.80
2013,03,26,13,33,12.80
2013,03,26,13,34,12.90
2013,03,26,13,35,12.90
2013,03,26,13,36,12.90
2013,03,26,13,37,12.90
2013,03,26,13,38,12.80
2013,03,26,13,39,12.70
2013,03,26,13,40,12.60
2013,03,26,13,41,12.50
2013,03,26,13,42,12.40
2013,03,26,13,43,12.40
2013,03,26,13,44,12.30
2013,03,26,13,45,12.30
2013,03,26,13,46,12.20
2013,03,26,13,47,12.20
2013,03,26,13,48,12.20
2013,03,26,13,49,12.20
2013,03,26,13,50,12.20
2013,03,26,13,51,12.20
2013,03,26,13,52,12.10
2013,03,26,13,53,12.20
2013,03,26,13,54,12.20
2013,03,26,13,55,12.20
2013,03,26,13,56,12.30
2013,03,26,13,57,12.30
2013,03,26,13,58,12.40
2013,03,26,13,59,12.50
2013,03,26,14,00,12.50
2013,03,26,14,01,12.60
2013,03,26,14,02,12.60
2013,03,26,14,03,12.60
2013,03,26,14,04,12.50
2013,03,26,14,05,12.60
2013,03,26,14,06,12.70
2013,03,26,14,07,12.70
2013,03,26,14,08,12.70
2013,03,26,14,09,12.70
2013,03,26,14,10,12.70
2013,03,26,14,11,12.60
2013,03,26,14,12,12.70
2013,03,26,14,13,12.70
2013,03,26,14,14,12.80
2013,03,26,14,15,12.90
2013,03,26,14,16,12.90
2013,03,26,14,17,13.00
2013,03,26,14,18,13.10
2013,03,26,14,19,13.10
2013,03,26,14,20,13.00
2013,03,26,14,21,13.10
2013,03,26,14,22,13.10
2013,03,26,14,23,13.20
2013,03,26,14,24,13.20
2013,03,26,14,25,13.20
2013,03,26,14,26,13.10
2013,03,26,14,27,13.10
2013,03,26,14,28,13.00
2013,03,26,14,29,12.90
2013,03,26,14,30,12.80
2013,03,26,14,31,12.70
2013,03,26,14,32,12.70
2013,03,26,14,33,12.60
2013,03,26,14,34,12.60
2013,03,26,14,35,12.70
2013,03,26,14,36,12.70
2013,03,26,14,37,12.70
2013,03,26,14,38,12.80
2013,03,26,14,39,12.80
2013,03,26,14,40,12.90
2013,03,26,14,41,13.00
2013,03,26,14,42,13.00
2013,03,26,14,43,13.00
2013,03,26,14,44,13.00
2013,03,26,14,45,13.00
2013,03,26,14,46,13.00
2013,03,26,14,47,13.00
2013,03,26,14,48,13.10
2013,03,26,14,49,13.10
2013,03,26,14,50,13.10
2013,03,26,14,51,13.20
2013,03,26,14,52,13.10
2013,03,26,14,53,13.20
2013,03,26,14,54,13.30
2013,03,26,14,55,13.30
2013,03,26,14,56,13.30
2013,03,26,14,57,13.30
2013,03,26,14,58,13.30
2013,03,26,14,59,13.30
2013,03,26,15,00,13.30
2013,03,26,15,01,13.30
2013,03,26,15,02,13.30
2013,03,26,15,03,13.40
2013,03,26,15,04,13.50
2013,03,26,15,05,13.60
2013,03,26,15,06,13.60
2013,03,26,15,07,13.60
2013,03,26,15,08,13.50
2013,03,26,15,09,13.40
2013,03,26,15,10,13.40
2013,03,26,15,11,13.30
2013,03,26,15,12,13.30
2013,03,26,15,13,13.20
2013,03,26,15,14,13.20
2013,03,26,15,15,13.20
2013,03,26,15,16,13.20
2013,03,26,15,17,13.20
2013,03,26,15,18,13.10
2013,03,26,15,19,13.10
2013,03,26,15,20,13.10
2013,03,26,15,21,13.10
2013,03,26,15,22,13.10
2013,03,26,15,23,13.10
2013,03,26,15,24,13.10
2013,03,26,15,25,13.00
2013,03,26,15,26,13.00
2013,03,26,15,27,13.00
2013,03,26,15,28,12.90
2013,03,26,15,29,12.90
2013,03,26,15,30,12.90
2013,03,26,15,31,12.80
2013,03,26,15,32,12.80
2013,03,26,15,33,12.70
2013,03,26,15,34,12.70
2013,03,26,15,35,12.70
2013,03,26,15,36,12.70
2013,03,26,15,37,12.70
2013,03,26,15,38,12.80
2013,03,26,15,39,12.80
2013,03,26,15,40,12.80
2013,03,26,15,41,12.80
2013,03,26,15,42,12.80
2013,03,26,15,43,12.80
2013,03,26,15,44,12.80
2013,03,26,15,45,12.80
2013,03,26,15,46,12.80
2013,03,26,15,47,12.80
2013,03,26,15,48,12.80
2013,03,26,15,49,12.80
2013,03,26,15,50,12.80
2013,03,26,15,51,12.80
2013,03,26,15,52,12.80
2013,03,26,15,53,12.70
2013,03,26,15,54,12.70
2013,03,26,15,55,12.70
2013,03,26,15,56,12.70
2013,03,26,15,57,12.70
2013,03,26,15,58,12.70
2013,03,26,15,59,12.70
2013,03,26,16,00,12.70
2013,03,26,16,01,12.70
2013,03,26,16,02,12.70
2013,03,26,16,03,12.70
2013,03,26,16,04,12.70
2013,03,26,16,05,12.70
2013,03,26,16,06,12.70
2013,03,26,16,07,12.70
2013,03,26,16,08,12.60
2013,03,26,16,09,12.60
2013,03,26,16,10,12.60
2013,03,26,16,11,12.60
2013,03,26,16,12,12.60
2013,03,26,16,13,12.60
2013,03,26,16,14,12.60
2013,03,26,16,15,12.60
2013,03,26,16,16,12.50
2013,03,26,16,17,12.50
2013,03,26,16,18,12.50
2013,03,26,16,19,12.50
2013,03,26,16,20,12.50
2013,03,26,16,21,12.50
2013,03,26,16,22,12.60
2013,03,26,16,23,12.60
2013,03,26,16,24,12.60
2013,03,26,16,25,12.60
2013,03,26,16,26,12.60
2013,03,26,16,27,12.60
2013,03,26,16,28,12.60
2013,03,26,16,29,12.60
2013,03,26,16,30,12.60
2013,03,26,16,31,12.60
2013,03,26,16,32,12.60
2013,03,26,16,33,12.60
2013,03,26,16,34,12.60
2013,03,26,16,35,12.70
2013,03,26,16,36,12.70
2013,03,26,16,37,12.70
2013,03,26,16,38,12.70
2013,03,26,16,39,12.80
2013,03,26,16,40,12.80
2013,03,26,16,41,12.80
2013,03,26,16,42,12.90
2013,03,26,16,43,12.90
2013,03,26,16,44,12.90
2013,03,26,16,45,12.90
2013,03,26,16,46,13.00
2013,03,26,16,47,13.00
2013,03,26,16,48,13.00
2013,03,26,16,49,12.90
2013,03,26,16,50,12.90
2013,03,26,16,51,12.90
2013,03,26,16,52,12.90
2013,03,26,16,53,12.90
2013,03,26,16,54,12.90
2013,03,26,16,55,12.90
2013,03,26,16,56,12.90
2013,03,26,16,57,12.90
2013,03,26,16,58,12.90
2013,03,26,16,59,12.90
2013,03,26,17,00,12.90
2013,03,26,17,01,12.90
2013,03,26,17,02,12.90
2013,03,26,17,03,12.90
2013,03,26,17,04,12.90
2013,03,26,17,05,12.90
2013,03,26,17,06,12.80
2013,03,26,17,07,12.80
2013,03,26,17,08,12.80
2013,03,26,17,09,12.80
2013,03,26,17,10,12.80
2013,03,26,17,11,12.70
2013,03,26,17,12,12.70
2013,03,26,17,13,12.70
2013,03,26,17,14,12.70
2013,03,26,17,15,12.70
2013,03,26,17,16,12.70
2013,03,26,17,17,12.70
2013,03,26,17,18,12.70
2013,03,26,17,19,12.70
2013,03,26,17,20,12.70
2013,03,26,17,21,12.70
2013,03,26,17,22,12.70
2013,03,26,17,23,12.70
2013,03,26,17,24,12.70
2013,03,26,17,25,12.70
2013,03,26,17,26,12.70
2013,03,26,17,27,12.70
2013,03,26,17,28,12.60
2013,03,26,17,29,12.60
2013,03,26,17,30,12.60
2013,03,26,17,31,12.60
2013,03,26,17,32,12.60
2013,03,26,17,33,12.60
2013,03,26,17,34,12.60
2013,03,26,17,35,12.60
2013,03,26,17,36,12.60
2013,03,26,17,37,12.60
2013,03,26,17,38,12.60
2013,03,26,17,39,12.60
2013,03,26,17,40,12.60
2013,03,26,17,41,12.60
2013,03,26,17,42,12.60
2013,03,26,17,43,12.50
2013,03,26,17,44,12.50
2013,03,26,17,45,12.50
2013,03,26,17,46,12.50
2013,03,26,17,47,12.50
2013,03,26,17,48,12.50
2013,03,26,17,49,12.50
2013,03,26,17,50,12.40
2013,03,26,17,51,12.40
2013,03,26,17,52,12.40
2013,03,26,17,53,12.40
2013,03,26,17,54,12.40
2013,03,26,17,55,12.40
2013,03,26,17,56,12.40
2013,03,26,17,57,12.40
2013,03,26,17,58,12.40
2013,03,26,17,59,12.40
2013,03,26,18,00,12.40
2013,03,26,18,01,12.50
2013,03,26,18,02,12.50
2013,03,26,18,03,12.50
2013,03,26,18,04,12.60
2013,03,26,18,05,12.60
2013,03,26,18,06,12.60
2013,03,26,18,07,12.60
2013,03,26,18,08,12.60
2013,03,26,18,09,12.60
2013,03,26,18,10,12.60
2013,03,26,18,11,12.50
2013,03,26,18,12,12.50
2013,03,26,18,13,12.50
2013,03,26,18,14,12.50
2013,03,26,18,15,12.40
2013,03,26,18,16,12.40
2013,03,26,18,17,12.40
2013,03,26,18,18,12.30
2013,03,26,18,19,12.30
2013,03,26,18,20,12.30
2013,03,26,18,21,12.30
2013,03,26,18,22,12.30
2013,03,26,18,23,12.30
2013,03,26,18,24,12.30
2013,03,26,18,25,12.30
2013,03,26,18,26,12.30
2013,03,26,18,27,12.30
2013,03,26,18,28,12.20
2013,03,26,18,29,12.20
2013,03,26,18,30,12.20
2013,03,26,18,31,12.20
2013,03,26,18,32,12.20
2013,03,26,18,33,12.20
2013,03,26,18,34,12.20
2013,03,26,18,35,12.20
2013,03,26,18,36,12.20
2013,03,26,18,37,12.10
2013,03,26,18,38,12.10
2013,03,26,18,39,12.10
2013,03,26,18,40,12.10
2013,03,26,18,41,12.10
2013,03,26,18,42,12.10
2013,03,26,18,43,12.10
2013,03,26,18,44,12.10
2013,03,26,18,45,12.00
2013,03,26,18,46,12.00
2013,03,26,18,47,12.00
2013,03,26,18,48,12.00
2013,03,26,18,49,12.00
2013,03,26,18,50,12.00
2013,03,26,18,51,12.00
2013,03,26,18,52,12.00
2013,03,26,18,53,11.90
2013,03,26,18,54,11.90
2013,03,26,18,55,11.90
2013,03,26,18,56,11.90
2013,03,26,18,57,11.90
2013,03,26,18,58,11.80
2013,03,26,18,59,11.80
2013,03,26,19,00,11.80
2013,03,26,19,01,11.80
2013,03,26,19,02,11.80
2013,03,26,19,03,11.70
2013,03,26,19,04,11.70
2013,03,26,19,05,11.70
2013,03,26,19,06,11.60
2013,03,26,19,07,11.60
2013,03,26,19,08,11.60
2013,03,26,19,09,11.60
2013,03,26,19,10,11.60
2013,03,26,19,11,11.60
2013,03,26,19,12,11.50
2013,03,26,19,13,11.50
2013,03,26,19,14,11.50
2013,03,26,19,15,11.50
2013,03,26,19,16,11.40
2013,03,26,19,17,11.40
2013,03,26,19,18,11.40
2013,03,26,19,19,11.40
2013,03,26,19,20,11.40
2013,03,26,19,21,11.30
2013,03,26,19,22,11.30
2013,03,26,19,23,11.30
2013,03,26,19,24,11.30
2013,03,26,19,25,11.30
2013,03,26,19,26,11.20
2013,03,26,19,27,11.20
2013,03,26,19,28,11.20
2013,03,26,19,29,11.20
2013,03,26,19,30,11.10
2013,03,26,19,31,11.10
2013,03,26,19,32,11.10
2013,03,26,19,33,11.10
2013,03,26,19,34,11.10
2013,03,26,19,35,11.10
2013,03,26,19,36,11.00
2013,03,26,19,37,11.00
2013,03,26,19,38,11.00
2013,03,26,19,39,11.00
2013,03,26,19,40,10.90
2013,03,26,19,41,10.90
2013,03,26,19,42,10.90
2013,03,26,19,43,10.90
2013,03,26,19,44,10.80
2013,03,26,19,45,10.80
2013,03,26,19,46,10.80
2013,03,26,19,47,10.80
2013,03,26,19,48,10.70
2013,03,26,19,49,10.70
2013,03,26,19,50,10.70
2013,03,26,19,51,10.60
2013,03,26,19,52,10.60
2013,03,26,19,53,10.60
2013,03,26,19,54,10.60
2013,03,26,19,55,10.50
2013,03,26,19,56,10.50
2013,03,26,19,57,10.40
2013,03,26,19,58,10.40
2013,03,26,19,59,10.40
2013,03,26,20,00,10.30
2013,03,26,20,01,10.30
2013,03,26,20,02,10.30
2013,03,26,20,03,10.20
2013,03,26,20,04,10.20
2013,03,26,20,05,10.20
2013,03,26,20,06,10.10
2013,03,26,20,07,10.10
2013,03,26,20,08,10.00
2013,03,26,20,09,10.00
2013,03,26,20,10,9.90
2013,03,26,20,11,9.90
2013,03,26,20,12,9.80
2013,03,26,20,13,9.80
2013,03,26,20,14,9.80
2013,03,26,20,15,9.70
2013,03,26,20,16,9.70
2013,03,26,20,17,9.70
2013,03,26,20,18,9.60
2013,03,26,20,19,9.60
2013,03,26,20,20,9.60
2013,03,26,20,21,9.60
2013,03,26,20,22,9.50
2013,03,26,20,23,9.50
2013,03,26,20,24,9.40
2013,03,26,20,25,9.40
2013,03,26,20,26,9.40
2013,03,26,20,27,9.30
2013,03,26,20,28,9.30
2013,03,26,20,29,9.30
2013,03,26,20,30,9.30
2013,03,26,20,31,9.20
2013,03,26,20,32,9.20
2013,03,26,20,33,9.20
2013,03,26,20,34,9.20
2013,03,26,20,35,9.10
2013,03,26,20,36,9.10
2013,03,26,20,37,9.10
2013,03,26,20,38,9.10
2013,03,26,20,39,9.00
2013,03,26,20,40,9.00
2013,03,26,20,41,9.00
2013,03,26,20,42,8.90
2013,03,26,20,43,8.90
2013,03,26,20,44,8.90
2013,03,26,20,45,8.80
2013,03,26,20,46,8.80
2013,03,26,20,47,8.80
2013,03,26,20,48,8.80
2013,03,26,20,49,8.80
2013,03,26,20,50,8.80
2013,03,26,20,51,8.70
2013,03,26,20,52,8.70
2013,03,26,20,53,8.70
2013,03,26,20,54,8.70
2013,03,26,20,55,8.60
2013,03,26,20,56,8.60
2013,03,26,20,57,8.60
2013,03,26,20,58,8.50
2013,03,26,20,59,8.50
2013,03,26,21,00,8.50
2013,03,26,21,01,8.40
2013,03,26,21,02,8.40
2013,03,26,21,03,8.40
2013,03,26,21,04,8.40
2013,03,26,21,05,8.30
2013,03,26,21,06,8.30
2013,03,26,21,07,8.30
2013,03,26,21,08,8.30
2013,03,26,21,09,8.20
2013,03,26,21,10,8.20
2013,03,26,21,11,8.20
2013,03,26,21,12,8.20
2013,03,26,21,13,8.10
2013,03,26,21,14,8.10
2013,03,26,21,15,8.10
2013,03,26,21,16,8.10
2013,03,26,21,17,8.10
2013,03,26,21,18,8.00
2013,03,26,21,19,8.00
2013,03,26,21,20,8.00
2013,03,26,21,21,8.00
2013,03,26,21,22,8.00
2013,03,26,21,23,7.90
2013,03,26,21,24,7.90
2013,03,26,21,25,7.90
2013,03,26,21,26,7.90
2013,03,26,21,27,7.90
2013,03,26,21,28,7.90
2013,03,26,21,29,7.90
2013,03,26,21,30,7.90
2013,03,26,21,31,7.80
2013,03,26,21,32,7.80
2013,03,26,21,33,7.80
2013,03,26,21,34,7.80
2013,03,26,21,35,7.80
2013,03,26,21,36,7.80
2013,03,26,21,37,7.80
2013,03,26,21,38,7.80
2013,03,26,21,39,7.80
2013,03,26,21,40,7.80
2013,03,26,21,41,7.80
2013,03,26,21,42,7.80
2013,03,26,21,43,7.80
2013,03,26,21,44,7.70
2013,03,26,21,45,7.70
2013,03,26,21,46,7.70
2013,03,26,21,47,7.70
2013,03,26,21,48,7.70
2013,03,26,21,49,7.70
2013,03,26,21,50,7.70
2013,03,26,21,51,7.70
2013,03,26,21,52,7.70
2013,03,26,21,53,7.70
2013,03,26,21,54,7.70
2013,03,26,21,55,7.70
2013,03,26,21,56,7.70
2013,03,26,21,57,7.70
2013,03,26,21,58,7.70
2013,03,26,21,59,7.70
2013,03,26,22,00,7.70
2013,03,26,22,01,7.70
2013,03,26,22,02,7.70
2013,03,26,22,03,7.70
2013,03,26,22,04,7.60
2013,03,26,22,05,7.60
2013,03,26,22,06,7.60
2013,03,26,22,07,7.60
2013,03,26,22,08,7.60
2013,03,26,22,09,7.60
2013,03,26,22,10,7.60
2013,03,26,22,11,7.60
2013,03,26,22,12,7.60
2013,03,26,22,13,7.60
2013,03,26,22,14,7.60
2013,03,26,22,15,7.60
2013,03,26,22,16,7.60
2013,03,26,22,17,7.60
2013,03,26,22,18,7.50
2013,03,26,22,19,7.50
2013,03,26,22,20,7.50
2013,03,26,22,21,7.50
2013,03,26,22,22,7.50
2013,03,26,22,23,7.50
2013,03,26,22,24,7.40
2013,03,26,22,25,7.40
2013,03,26,22,26,7.40
2013,03,26,22,27,7.40
2013,03,26,22,28,7.40
2013,03,26,22,29,7.40
2013,03,26,22,30,7.40
2013,03,26,22,31,7.40
2013,03,26,22,32,7.40
2013,03,26,22,33,7.30
2013,03,26,22,34,7.30
2013,03,26,22,35,7.30
2013,03,26,22,36,7.30
2013,03,26,22,37,7.30
2013,03,26,22,38,7.30
2013,03,26,22,39,7.30
2013,03,26,22,40,7.20
2013,03,26,22,41,7.20
2013,03,26,22,42,7.20
2013,03,26,22,43,7.20
2013,03,26,22,44,7.20
2013,03,26,22,45,7.20
2013,03,26,22,46,7.20
2013,03,26,22,47,7.20
2013,03,26,22,48,7.20
2013,03,26,22,49,7.20
2013,03,26,22,50,7.20
2013,03,26,22,51,7.20
2013,03,26,22,52,7.10
2013,03,26,22,53,7.10
2013,03,26,22,54,7.10
2013,03,26,22,55,7.10
2013,03,26,22,56,7.10
2013,03,26,22,57,7.10
2013,03,26,22,58,7.00
2013,03,26,22,59,7.00
2013,03,26,23,00,7.00
2013,03,26,23,01,7.00
2013,03,26,23,02,6.90
2013,03,26,23,03,6.90
2013,03,26,23,04,6.90
2013,03,26,23,05,6.90
2013,03,26,23,06,6.90
2013,03,26,23,07,6.90
2013,03,26,23,08,6.90
2013,03,26,23,09,6.90
2013,03,26,23,10,6.90
2013,03,26,23,11,6.80
2013,03,26,23,12,6.80
2013,03,26,23,13,6.80
2013,03,26,23,14,6.80
2013,03,26,23,15,6.80
2013,03,26,23,16,6.80
2013,03,26,23,17,6.80
2013,03,26,23,18,6.80
2013,03,26,23,19,6.80
2013,03,26,23,20,6.70
2013,03,26,23,21,6.70
2013,03,26,23,22,6.70
2013,03,26,23,23,6.70
2013,03,26,23,24,6.70
2013,03,26,23,25,6.70
2013,03,26,23,26,6.70
2013,03,26,23,27,6.70
2013,03,26,23,28,6.70
2013,03,26,23,29,6.60
2013,03,26,23,30,6.60
2013,03,26,23,31,6.60
2013,03,26,23,32,6.60
2013,03,26,23,33,6.60
2013,03,26,23,34,6.60
2013,03,26,23,35,6.60
2013,03,26,23,36,6.60
2013,03,26,23,37,6.60
2013,03,26,23,38,6.60
2013,03,26,23,39,6.60
2013,03,26,23,40,6.60
2013,03,26,23,41,6.60
2013,03,26,23,42,6.50
2013,03,26,23,43,6.50
2013,03,26,23,44,6.50
2013,03,26,23,45,6.50
2013,03,26,23,46,6.50
2013,03,26,23,47,6.50
2013,03,26,23,48,6.50
2013,03,26,23,49,6.50
2013,03,26,23,50,6.50
2013,03,26,23,51,6.40
2013,03,26,23,52,6.40
2013,03,26,23,53,6.40
2013,03,26,23,54,6.40
2013,03,26,23,55,6.40
2013,03,26,23,56,6.40
2013,03,26,23,57,6.40
2013,03,26,23,58,6.30
2013,03,26,23,59,6.30
